SCP
0 0 0 0 0 0 0 0 0 1 1 1 1 1 1 1 1 1 1 1 1 1 1 1 1 1 0 0 0 0 0 0 0 0 0 0 0 0 0 0 0 0 0
0 0 0 0 0 0 0 0 0 1 1 1 1 1 1 1 1 1 1 1 1 1 1 1 1 1 0 0 0 0 0 0 0 0 0 0 0 0 0 0 0 0 0
0 0 0 0 0 0 0 0 0 1 1 1 1 1 1 1 1 1 1 1 1 1 1 1 1 0 0 0 0 0 0 0 0 0 0 0 0 0 0 0 0 0 0
0 0 0 0 0 0 0 0 0 1 1 1 1 1 1 1 1 1 1 1 1 1 1 1 1 0 0 0 0 0 0 0 0 0 0 0 0 0 0 0 0 0 0
0 0 0 0 0 0 0 0 0 0 1 1 1 1 1 1 1 1 1 1 1 1 1 1 1 0 0 0 0 0 0 0 0 0 0 0 0 0 0 0 0 0 0
0 0 0 0 0 0 0 0 0 0 0 1 1 1 1 1 1 1 1 1 1 1 1 1 1 1 1 1 0 0 0 0 0 0 0 0 0 0 0 0 0 0 0
0 0 0 0 0 0 0 0 0 0 0 1 1 1 1 1 1 1 1 1 1 1 1 1 1 0 1 1 0 0 0 0 0 0 0 0 0 0 0 0 0 0 0
0 0 0 0 0 0 0 0 0 0 0 0 0 0 1 1 1 1 1 1 1 1 1 1 0 0 1 1 0 0 0 0 0 0 0 1 0 0 0 0 0 0 0
0 0 0 0 0 0 0 0 0 0 0 0 0 0 0 0 1 1 1 1 1 1 1 0 0 0 0 0 0 0 0 0 0 0 1 1 1 0 0 0 0 0 0
0 0 0 0 0 0 0 0 0 0 0 0 0 0 0 0 0 0 0 0 0 0 0 0 0 0 0 0 0 0 0 0 0 0 1 1 1 0 0 0 0 0 0
0 0 0 0 0 0 0 0 0 0 0 0 0 0 0 0 0 0 0 0 0 0 0 0 0 0 0 0 0 0 0 0 0 0 1 1 1 0 0 0 0 0 0
0 0 0 0 0 0 0 0 0 0 0 0 0 0 0 0 0 0 0 0 0 0 0 0 0 0 0 0 0 0 0 0 0 1 1 1 1 1 0 0 0 0 0
0 0 0 0 0 0 0 0 0 0 0 0 0 0 0 0 0 0 0 0 0 0 0 0 0 0 0 0 0 0 0 0 0 1 1 1 1 1 1 0 0 0 0
0 0 0 0 0 0 0 0 0 0 0 0 0 0 0 0 0 0 0 0 0 0 0 0 0 0 0 0 0 0 0 0 0 1 1 1 1 1 1 0 0 0 0
0 0 0 0 0 0 0 0 0 0 0 0 0 0 0 0 0 0 0 0 0 0 0 0 0 0 0 0 0 0 0 0 0 0 0 0 0 0 0 0 0 0 0
0 0 0 0 0 0 0 0 0 0 0 0 0 0 0 0 0 0 0 0 0 0 0 0 0 0 0 0 0 0 0 0 0 0 0 0 0 0 0 0 0 0 0
0 0 0 0 0 0 0 0 0 0 0 0 0 0 0 0 0 0 0 0 0 0 0 0 0 0 0 0 0 0 0 0 0 0 0 0 0 0 0 0 0 0 0
0 0 0 0 0 0 0 0 0 0 0 0 0 0 0 0 0 0 0 0 0 0 0 0 0 0 0 0 0 0 0 0 0 0 0 0 0 0 0 0 0 0 0
0 0 0 0 0 0 0 0 0 0 0 0 0 0 0 0 0 0 0 0 0 0 0 0 0 0 0 0 0 0 0 0 0 0 0 0 0 0 0 0 0 0 0
0 0 0 0 0 0 0 0 0 0 0 0 0 0 0 0 0 0 0 0 0 0 0 0 0 0 0 0 0 0 0 0 0 0 0 0 0 0 0 0 0 0 0
0 0 0 0 0 0 0 0 0 0 0 0 0 0 0 0 0 0 0 0 0 0 0 0 0 0 0 0 0 0 0 0 0 0 0 0 0 0 0 0 0 0 0
0 0 0 0 0 0 0 0 0 0 0 0 0 0 0 0 0 0 0 0 0 0 0 0 0 0 0 0 0 0 0 0 0 0 0 0 0 0 0 0 0 0 0
0 0 0 0 0 0 0 0 0 0 0 0 0 0 0 0 0 0 0 0 0 0 0 0 0 0 0 0 0 0 0 0 0 0 0 0 0 0 0 0 0 0 0
0 0 0 0 0 0 0 0 0 0 0 0 0 0 0 0 0 0 0 0 0 0 0 0 0 0 0 0 0 0 0 0 0 0 0 0 0 0 0 0 0 0 0
0 0 0 0 0 0 0 0 0 0 0 0 0 0 0 0 0 0 0 0 0 0 0 0 0 0 0 0 0 0 0 0 0 0 0 0 0 0 0 0 0 0 0
0 0 0 0 0 0 0 0 0 0 0 0 0 0 0 0 0 0 0 0 0 0 0 0 0 0 0 0 0 0 0 0 0 0 0 0 0 0 0 0 0 0 0
Wind_Speed
11 8 8 7 7 7 8 8 8 8 7 5 5 6 6 6 6 7 8 9 10 11 11 9 9 9 9 9 9 6 6 4 3 3 0 1 1 2 3 3 3 3 4
10 9 7 6 6 6 7 7 8 8 8 7 6 4 4 4 5 6 7 10 11 11 11 11 10 11 9 10 10 7 5 4 5 4 3 1 2 2 2 2 3 3 3
11 10 7 5 5 6 6 6 7 7 8 8 5 3 3 2 4 5 6 9 11 11 11 12 11 11 10 10 11 10 9 6 5 4 5 4 4 2 1 2 2 3 3
9 8 7 5 4 5 5 5 5 6 6 7 7 8 7 6 6 6 7 7 10 11 11 11 11 11 10 9 10 10 7 7 6 4 3 3 4 3 2 1 2 3 4
9 8 7 5 4 3 3 4 4 4 5 6 7 8 7 6 4 5 7 8 8 10 11 11 11 11 10 10 10 9 8 7 7 6 4 3 1 2 3 3 2 2 3
10 9 8 6 5 4 2 2 2 3 3 5 6 8 8 8 7 7 7 6 6 7 10 11 11 10 9 9 9 9 10 9 8 6 5 4 4 4 4 4 3 3 3
10 10 10 9 8 6 3 2 0 1 1 3 5 6 7 8 8 8 7 6 5 5 8 9 9 9 9 9 8 9 9 9 8 8 6 5 4 3 3 3 3 2 2
11 11 10 9 9 8 6 4 3 2 1 1 2 3 4 4 4 5 4 5 5 5 7 9 8 8 9 9 8 7 8 8 8 8 7 5 4 4 4 4 3 2 2
12 11 11 10 10 10 9 7 5 5 4 2 2 1 1 2 2 3 3 2 2 3 5 6 7 7 7 8 8 7 8 7 7 7 7 5 4 4 4 4 4 5 5
11 11 11 11 11 10 10 9 8 7 7 6 5 3 3 3 2 2 2 2 2 2 3 4 5 6 6 6 6 5 5 6 6 5 6 6 4 4 4 5 4 4 5
11 11 10 10 10 11 12 12 11 10 9 8 7 7 6 6 5 4 4 3 3 2 1 2 3 4 5 4 5 5 5 6 6 5 6 6 5 5 4 4 4 4 4
10 10 11 11 12 13 13 13 12 11 10 8 8 9 9 8 7 6 5 5 4 3 2 1 1 2 3 4 5 5 5 6 6 6 6 6 5 6 5 5 6 5 5
10 10 10 11 11 12 12 12 12 12 11 10 10 10 10 9 8 7 6 6 5 5 5 3 1 0 1 3 3 4 5 6 6 6 6 6 6 7 5 5 6 5 4
8 9 10 10 11 11 11 11 11 11 11 12 12 11 10 9 9 8 8 8 7 6 6 5 3 2 1 1 1 2 3 4 5 5 6 6 7 7 7 6 6 5 5
8 9 9 9 10 10 11 11 11 11 11 12 12 12 10 10 10 11 10 10 9 8 6 6 6 4 3 2 1 2 3 4 4 4 4 5 7 8 7 6 6 6 6
6 7 7 8 9 9 9 10 10 10 10 12 12 11 11 11 11 10 9 9 9 8 8 7 6 6 5 7 6 3 2 3 4 4 4 4 6 7 9 10 9 9 8
4 5 6 6 7 7 8 8 8 9 10 10 10 10 10 10 9 9 9 9 8 8 8 7 6 6 7 11 10 7 2 2 3 4 4 3 4 6 5 7 8 9 12
3 4 4 5 5 6 6 6 8 9 9 9 9 9 9 9 8 9 9 8 6 6 6 7 6 6 7 12 12 10 4 2 3 3 4 5 5 5 5 4 5 5 6
1 2 2 3 4 6 6 6 8 8 9 9 9 8 7 7 8 8 7 6 6 6 5 5 6 6 7 12 12 10 4 3 4 3 4 4 5 8 7 5 5 5 5
2 2 2 3 5 5 5 6 7 8 8 8 7 7 7 7 7 7 6 5 5 5 5 6 5 6 6 11 12 11 3 4 4 4 4 6 8 9 8 5 5 6 5
2 2 3 4 4 5 5 6 6 7 6 6 6 6 6 6 6 6 5 6 6 6 6 5 5 5 7 10 12 11 4 4 4 4 4 4 10 11 11 9 6 8 6
2 3 3 3 4 4 5 5 6 5 5 5 6 6 7 6 6 5 5 5 5 6 6 6 6 4 5 8 10 12 10 9 5 5 4 5 11 12 12 9 9 10 7
2 2 2 2 3 4 4 4 5 5 6 6 6 6 6 6 6 6 6 5 5 5 5 5 6 6 5 6 12 13 12 12 7 5 10 12 13 11 8 9 11 8 4
2 1 2 2 2 3 3 3 4 5 5 6 6 6 6 7 6 5 4 4 5 5 5 6 6 6 6 5 5 5 6 8 7 6 8 12 11 9 8 8 6 4 4
2 2 1 1 1 2 3 4 4 4 5 5 5 5 5 6 6 5 4 5 4 5 6 5 5 7 7 9 14 10 6 5 6 7 5 4 4 4 4 4 4 4 4
2 1 1 0 1 2 3 4 4 4 4 4 4 4 4 4 5 5 6 8 9 12 13 13 11 8 12 17 17 16 15 15 13 8 4 4 4 5 5 5 5 4 4
Wind_Direction
279 279 267 259 247 243 237 232 228 221 203 194 193 192 201 200 196 199 198 196 195 193 189 190 185 186 191 189 183 172 173 172 147 127 120 313 248 225 222 207 199 197 192
308 303 285 266 248 243 240 232 228 218 204 199 194 185 182 193 197 199 199 200 197 196 195 192 190 190 192 189 183 172 168 171 167 150 140 222 294 259 224 205 205 202 187
307 307 299 273 259 250 241 237 230 218 205 199 192 178 168 170 186 194 201 202 200 199 198 198 192 192 192 194 190 184 179 177 184 177 163 170 211 233 249 218 209 198 195
318 316 316 305 280 257 242 234 226 214 201 192 192 191 191 199 202 198 200 196 197 199 199 199 196 193 194 196 195 190 185 175 183 195 205 184 161 165 212 258 223 206 207
335 330 328 315 309 293 260 238 224 212 197 193 199 203 206 206 199 190 194 198 199 200 198 197 197 196 196 197 195 191 190 188 186 183 176 176 177 172 175 217 222 220 219
348 348 349 352 345 332 304 278 234 225 204 197 200 205 206 202 196 196 197 200 199 200 198 196 198 198 197 196 196 196 196 198 196 192 184 177 180 191 188 204 214 219 217
359 359 0 1 357 357 354 357 17 268 237 212 206 208 209 204 203 202 200 199 199 202 197 195 197 196 195 193 193 196 200 199 200 201 203 201 203 179 175 184 204 220 220
6 4 5 6 1 4 5 10 15 2 357 266 218 206 206 204 201 197 194 200 202 201 192 193 193 194 193 190 192 198 201 199 204 208 204 205 205 191 189 182 178 214 233
8 8 10 10 9 8 11 20 29 26 25 27 42 85 159 172 175 170 178 175 183 189 186 185 186 190 189 189 189 199 199 197 203 206 206 208 206 203 202 197 191 195 226
8 12 16 15 15 16 17 24 30 31 30 32 44 51 67 87 91 95 99 114 120 128 150 168 180 180 180 185 186 190 195 196 203 203 207 211 208 210 205 204 208 209 218
9 13 17 17 20 22 23 26 26 26 30 33 41 45 51 59 64 65 66 72 74 80 123 152 178 180 179 183 191 199 196 204 210 208 212 218 211 212 209 205 208 215 212
15 19 21 22 23 24 24 25 25 28 29 33 44 47 43 43 51 49 44 45 47 47 57 86 152 178 181 190 197 208 209 210 216 216 216 223 216 219 216 211 216 218 213
23 23 24 23 23 22 21 23 24 27 29 36 47 48 43 41 39 36 36 42 46 44 42 46 50 90 188 195 204 212 217 220 222 218 218 222 216 225 224 221 222 220 215
25 26 24 22 21 21 22 23 24 25 30 37 43 43 37 34 32 35 36 36 36 38 34 30 29 27 24 198 210 214 225 231 233 228 225 224 222 228 225 224 223 217 211
25 25 23 20 19 20 20 22 24 26 30 37 39 36 33 33 33 33 33 32 32 31 29 29 24 19 14 353 304 232 231 233 238 238 235 235 239 240 234 229 221 213 215
20 23 24 22 20 18 18 21 23 22 28 35 34 30 31 32 31 29 29 31 30 26 28 28 23 20 11 355 352 329 253 246 244 251 254 254 246 249 251 248 237 224 217
18 23 22 20 19 16 16 20 20 24 31 33 30 27 28 29 26 25 27 26 22 23 23 19 18 13 2 1 359 346 330 276 255 251 254 265 262 259 248 251 247 238 234
17 15 14 15 15 16 18 20 26 29 30 29 25 21 23 23 20 22 22 16 13 16 14 9 6 3 358 359 356 353 348 311 288 271 256 252 254 249 249 244 244 246 243
48 21 13 17 18 16 12 26 30 27 27 23 17 14 16 18 18 18 11 6 7 8 5 -0 358 356 349 354 355 354 341 325 312 297 278 265 252 258 261 244 240 253 258
75 55 34 35 29 11 13 35 28 25 19 9 4 5 11 14 12 7 1 358 1 358 355 354 352 348 341 347 350 349 339 328 322 318 307 294 288 278 268 249 235 246 252
82 67 54 40 19 6 23 34 25 13 355 351 357 4 6 5 2 359 357 354 354 352 351 345 341 340 339 341 343 340 336 319 314 311 307 299 297 291 284 276 255 250 254
76 66 58 35 14 13 27 27 10 346 344 354 1 1 359 358 359 356 351 350 350 347 343 341 337 334 332 336 333 331 329 325 311 302 299 295 298 297 293 287 268 264 260
99 74 74 43 16 14 25 19 347 342 350 359 359 352 351 352 352 351 347 347 349 346 340 338 331 327 325 323 328 325 321 321 315 300 299 300 298 296 290 278 275 270 246
136 117 94 54 9 3 11 359 342 349 357 357 352 350 350 346 346 345 341 339 337 333 331 329 324 319 316 313 313 308 307 311 311 303 296 299 298 293 280 275 274 258 238
147 131 124 99 345 352 355 350 350 355 356 349 346 344 342 336 333 331 325 324 307 314 318 314 309 312 312 312 316 316 311 305 298 305 297 292 291 285 275 267 260 250 239
151 136 135 100 325 344 341 339 343 351 350 343 339 335 330 327 326 325 323 324 322 323 323 320 317 307 308 314 317 316 315 313 310 310 295 290 286 283 279 274 271 259 244